TimeEST,TemperatureF,Dew PointF,Humidity,Sea Level PressureIn,VisibilityMPH,Wind Direction,Wind SpeedMPH,Gust SpeedMPH,PrecipitationIn,Events,Conditions,WindDirDegrees,DateUTC
12:15 AM,50.0,46.4,87,30.15,4.0,Calm,Calm,-,N/A,,Clear,0,2011-11-09 05:15:00
12:35 AM,50.0,48.2,94,30.14,3.0,Calm,Calm,-,N/A,,Clear,0,2011-11-09 05:35:00
12:55 AM,46.4,44.6,93,30.14,10.0,Calm,Calm,-,N/A,,Clear,0,2011-11-09 05:55:00
1:15 AM,46.4,44.6,93,30.14,10.0,Calm,Calm,-,N/A,,Clear,0,2011-11-09 06:15:00
1:35 AM,46.4,44.6,93,30.12,10.0,Calm,Calm,-,N/A,,Clear,0,2011-11-09 06:35:00
1:55 AM,46.4,44.6,93,30.12,10.0,Calm,Calm,-,N/A,,Clear,0,2011-11-09 06:55:00
2:15 AM,46.4,42.8,87,30.12,10.0,Calm,Calm,-,N/A,,Clear,0,2011-11-09 07:15:00
2:35 AM,44.6,42.8,93,30.11,7.0,North,3.5,-,N/A,,Clear,10,2011-11-09 07:35:00
2:55 AM,46.4,44.6,93,30.11,10.0,Calm,Calm,-,N/A,,Clear,0,2011-11-09 07:55:00
3:15 AM,46.4,44.6,93,30.11,10.0,Calm,Calm,-,N/A,,Clear,0,2011-11-09 08:15:00
3:35 AM,46.4,44.6,93,30.11,10.0,Calm,Calm,-,N/A,,Clear,0,2011-11-09 08:35:00
3:55 AM,46.4,44.6,93,30.11,10.0,Calm,Calm,-,N/A,,Clear,0,2011-11-09 08:55:00
4:15 AM,44.6,42.8,93,30.11,10.0,WNW,3.5,-,N/A,,Clear,300,2011-11-09 09:15:00
4:35 AM,46.4,44.6,93,30.11,10.0,Calm,Calm,-,N/A,,Clear,0,2011-11-09 09:35:00
4:55 AM,46.4,44.6,93,30.11,10.0,NW,3.5,-,N/A,,Clear,320,2011-11-09 09:55:00
5:15 AM,46.4,44.6,93,30.11,10.0,Calm,Calm,-,N/A,,Clear,0,2011-11-09 10:15:00
5:35 AM,46.4,44.6,93,30.11,10.0,Calm,Calm,-,N/A,,Clear,0,2011-11-09 10:35:00
5:55 AM,46.4,44.6,93,30.12,10.0,Calm,Calm,-,N/A,,Clear,0,2011-11-09 10:55:00
6:15 AM,48.2,46.4,93,30.12,10.0,Calm,Calm,-,N/A,,Clear,0,2011-11-09 11:15:00
6:35 AM,48.2,46.4,93,30.12,10.0,Calm,Calm,-,N/A,,Clear,0,2011-11-09 11:35:00
6:55 AM,48.2,46.4,93,30.12,10.0,NW,3.5,-,N/A,,Clear,320,2011-11-09 11:55:00
7:15 AM,48.2,46.4,93,30.13,10.0,NNW,3.5,-,N/A,,Clear,330,2011-11-09 12:15:00
7:35 AM,48.2,46.4,93,30.13,10.0,NNW,3.5,-,N/A,,Clear,340,2011-11-09 12:35:00
7:55 AM,50.0,48.2,94,30.13,10.0,North,3.5,-,N/A,,Clear,350,2011-11-09 12:55:00
8:15 AM,53.6,50.0,88,30.14,10.0,NNE,4.6,-,N/A,,Clear,30,2011-11-09 13:15:00
8:35 AM,55.4,51.8,88,30.14,7.0,North,3.5,-,N/A,,Clear,360,2011-11-09 13:35:00
8:55 AM,59.0,53.6,82,30.14,10.0,North,5.8,-,N/A,,Clear,360,2011-11-09 13:55:00
9:35 AM,62.6,53.6,72,30.13,10.0,NE,6.9,-,N/A,,Clear,40,2011-11-09 14:35:00
9:55 AM,64.4,53.6,68,30.13,10.0,NE,5.8,-,N/A,,Clear,40,2011-11-09 14:55:00
10:15 AM,66.2,53.6,64,30.13,10.0,NE,6.9,-,N/A,,Clear,40,2011-11-09 15:15:00
10:35 AM,68.0,53.6,60,30.12,10.0,NE,8.1,-,N/A,,Clear,50,2011-11-09 15:35:00
10:55 AM,69.8,55.4,60,30.12,10.0,NNE,9.2,-,N/A,,Clear,30,2011-11-09 15:55:00
11:15 AM,71.6,53.6,53,30.11,10.0,ENE,8.1,-,N/A,,Clear,60,2011-11-09 16:15:00
11:35 AM,71.6,53.6,53,30.10,10.0,ENE,10.4,-,N/A,,Clear,60,2011-11-09 16:35:00
11:55 AM,71.6,53.6,53,30.09,10.0,ENE,8.1,-,N/A,,Clear,60,2011-11-09 16:55:00
12:15 PM,73.4,51.8,47,30.08,10.0,ENE,9.2,-,N/A,,Clear,60,2011-11-09 17:15:00
12:35 PM,73.4,51.8,47,30.07,10.0,NE,9.2,-,N/A,,Scattered Clouds,50,2011-11-09 17:35:00
12:55 PM,73.4,51.8,47,30.06,10.0,NE,6.9,-,N/A,,Overcast,50,2011-11-09 17:55:00
1:15 PM,75.2,51.8,44,30.04,10.0,ENE,8.1,-,N/A,,Mostly Cloudy,70,2011-11-09 18:15:00
1:35 PM,75.2,51.8,44,30.03,10.0,East,9.2,-,N/A,,Scattered Clouds,80,2011-11-09 18:35:00
1:55 PM,75.2,50.0,41,30.03,10.0,East,8.1,-,N/A,,Clear,90,2011-11-09 18:55:00
2:15 PM,75.2,50.0,41,30.02,10.0,NE,8.1,-,N/A,,Clear,50,2011-11-09 19:15:00
2:35 PM,75.2,50.0,41,30.01,10.0,East,5.8,-,N/A,,Clear,90,2011-11-09 19:35:00
2:55 PM,75.2,50.0,41,30.01,10.0,NE,3.5,-,N/A,,Clear,50,2011-11-09 19:55:00
3:15 PM,75.2,50.0,41,30.01,10.0,NE,4.6,-,N/A,,Mostly Cloudy,50,2011-11-09 20:15:00
3:35 PM,75.2,50.0,41,30.00,10.0,East,3.5,-,N/A,,Overcast,100,2011-11-09 20:35:00
3:55 PM,73.4,50.0,44,30.00,10.0,Calm,Calm,-,N/A,,Scattered Clouds,0,2011-11-09 20:55:00
4:15 PM,71.6,55.4,57,30.00,10.0,SSE,3.5,-,N/A,,Clear,150,2011-11-09 21:15:00
4:35 PM,69.8,55.4,60,30.00,10.0,East,3.5,-,N/A,,Clear,100,2011-11-09 21:35:00
4:55 PM,68.0,55.4,64,30.00,10.0,Calm,Calm,-,N/A,,Clear,0,2011-11-09 21:55:00
5:15 PM,64.4,55.4,73,30.00,10.0,Calm,Calm,-,N/A,,Clear,0,2011-11-09 22:15:00
5:35 PM,62.6,57.2,82,30.00,10.0,Calm,Calm,-,N/A,,Clear,0,2011-11-09 22:35:00
5:55 PM,60.8,55.4,82,30.00,10.0,Calm,Calm,-,N/A,,Clear,0,2011-11-09 22:55:00
6:15 PM,59.0,55.4,88,30.00,10.0,Calm,Calm,-,N/A,,Clear,0,2011-11-09 23:15:00
6:35 PM,60.8,55.4,82,30.00,10.0,Calm,Calm,-,N/A,,Clear,0,2011-11-09 23:35:00
6:55 PM,59.0,53.6,82,29.98,10.0,Calm,Calm,-,N/A,,Clear,0,2011-11-09 23:55:00
7:15 PM,57.2,53.6,88,29.98,10.0,Calm,Calm,-,N/A,,Clear,0,2011-11-10 00:15:00
7:35 PM,55.4,53.6,94,29.98,10.0,Calm,Calm,-,N/A,,Clear,0,2011-11-10 00:35:00
7:55 PM,55.4,53.6,94,29.98,10.0,Calm,Calm,-,N/A,,Clear,0,2011-11-10 00:55:00
8:15 PM,59.0,53.6,82,29.98,10.0,Calm,Calm,-,N/A,,Clear,0,2011-11-10 01:15:00
8:35 PM,53.6,51.8,94,29.98,10.0,Calm,Calm,-,N/A,,Clear,0,2011-11-10 01:35:00
8:55 PM,53.6,50.0,88,29.98,10.0,Calm,Calm,-,N/A,,Clear,0,2011-11-10 01:55:00
9:15 PM,53.6,51.8,94,29.98,10.0,WNW,5.8,-,N/A,,Clear,290,2011-11-10 02:15:00
9:35 PM,55.4,51.8,88,29.99,10.0,Calm,Calm,-,N/A,,Clear,0,2011-11-10 02:35:00
9:55 PM,53.6,51.8,94,29.99,10.0,Calm,Calm,-,N/A,,Clear,0,2011-11-10 02:55:00
10:15 PM,53.6,51.8,94,29.98,10.0,Calm,Calm,-,N/A,,Clear,0,2011-11-10 03:15:00
10:35 PM,53.6,51.8,94,29.97,10.0,Calm,Calm,-,N/A,,Clear,0,2011-11-10 03:35:00
10:55 PM,51.8,50.0,94,29.97,5.0,Calm,Calm,-,N/A,,Clear,0,2011-11-10 03:55:00
11:15 PM,51.8,50.0,94,29.98,10.0,Calm,Calm,-,N/A,,Clear,0,2011-11-10 04:15:00
11:35 PM,51.8,48.2,88,29.97,10.0,Calm,Calm,-,N/A,,Clear,0,2011-11-10 04:35:00
11:55 PM,51.8,48.2,88,29.96,10.0,Calm,Calm,-,N/A,,Clear,0,2011-11-10 04:55:00